map of EAS home
EAS - Airport
Location
City:  San Sebastián, Basque Country, Spain
Near (Alt.):Hondarribia
Name:San Sebastián Airport
Old (Alt.):Fuenterrabia Airport
ICAO:LESO
IATA:EAS

Details
Type:Airport (Aerodrome, Airfield)
Use:Public/Civil
Latitude:43°21'23"N (43.356519)
Longitude:1°47'26"W (-1.790610)
Datum:WGS 1984
Elevation:15 ft (5 m)
Variation:0.16°W (WMM2015 magnetic declination)
0.12° annual change
Runways:1
Longest:5755 × 148 ft (1754 × 45 m), paved

Time
Time Zone:UTC+1 (DST+2)
Local Time:

Weather
METAR:LESO 161400Z 30006KT 250V360 9999 FEW028 13/08 Q1016
TAF:LESO 161100Z 1612/1712 26008KT 9999 FEW030 TX12/1615Z TN07/1706Z PROB40
TEMPO 1620/1712 3000 RA BKN010 PROB30
TEMPO 1621/1709 1500 -RA BCFG BKN005 BKN010

Related Locations
Nearby:
Farthest:NZFT: 12248 mi / 19711 km
Flat Point, WGN, NZ

Find:

   beyond  
but within

Other Information
Maps:
NOTAMs:
Links:
Sources:

  
  • flag of Spain
  • flag of Basque Country
  

Sectional Chart

Flight Planning
at skyvector.com

Satellite Image

Google Maps Satellite view

 

Copyright © 2004-2019 Karl L. Swartz. All rights reserved.
The Great Circle Mapper name and logo are trademarks of the Great Circle Mapper.
All other trademarks mentioned herein belong to their respective owners.
Please see credits for attibutions and further copyright information.

  Follow gcmap on Facebook Follow gcmap on Twitter Follow gcmap on Google+ GCmap on LinkedIn

hCard Microformat

Geo Microformat